Location: Newark
(35.6799°N, 139.7636°E)
Time: 18:30:09
(UTC+00:00)

Vanguard 1 Rocket - Visible Passes

Search period start: 12 December 2019 00:00
Search period end: 22 December 2019 00:00
Orbit: 650 x 4226 km, 34.3° (Epoch: 11 December)

Date Brightness Start Highest point End Pass type
(mag) Time Alt. Az. Time Alt. Az. Time Alt. Az.
12 Dec 9.8 09:37:33 10° SW 09:59:52 52° SSE 10:05:00 42° ESE visible
12 Dec 10.2 12:10:12 10° WSW 12:22:17 43° WSW 12:22:17 43° WSW visible
13 Dec 10.4 08:23:50 10° SSW 08:46:04 41° SSE 08:57:52 19° E visible
13 Dec 9.5 10:54:20 10° WSW 11:15:10 70° S 11:15:10 70° S visible
13 Dec 11.0 13:28:36 10° W 13:32:28 19° W 13:32:28 19° W visible
14 Dec 9.7 09:39:02 10° SW 10:02:31 60° SSE 10:08:02 45° ESE visible
14 Dec 10.2 12:12:39 10° WSW 12:25:20 44° WSW 12:25:20 44° WSW visible
15 Dec 10.4 08:24:48 10° SW 08:48:34 49° SSE 09:00:53 20° E visible
15 Dec 9.5 10:56:29 10° WSW 11:18:11 76° S 11:18:11 76° S visible
15 Dec 11.0 13:31:14 10° W 13:35:28 19° W 13:35:28 19° W visible
16 Dec 9.7 09:40:48 10° SW 10:05:10 68° SSE 10:11:01 48° E visible
16 Dec 10.2 12:15:10 10° W 12:28:18 46° W 12:28:18 46° W visible
17 Dec 10.3 08:26:08 10° SW 08:51:01 57° SSE 09:03:50 22° E visible
17 Dec 9.5 10:58:48 10° WSW 11:21:07 81° SSW 11:21:07 81° SSW visible
17 Dec 11.0 13:33:51 10° W 13:38:25 20° W 13:38:25 20° W visible
18 Dec 9.7 09:42:49 10° WSW 10:07:48 75° SSE 10:13:56 49° E visible
18 Dec 10.2 12:17:44 10° W 12:31:13 46° W 12:31:13 46° W visible
19 Dec 10.3 08:27:48 10° SW 08:53:28 65° SSE 09:06:44 23° E visible
19 Dec 9.5 11:01:14 10° W 11:24:01 84° SSW 11:24:01 84° SSW visible
19 Dec 11.0 13:36:27 10° W 13:41:18 21° W 13:41:18 21° W visible
20 Dec 10.8 07:14:07 10° SW 07:38:51 53° SSE 07:57:50 10° E visible
20 Dec 9.7 09:45:02 10° WSW 10:10:29 80° SSE 10:16:48 50° E visible
20 Dec 10.2 12:20:18 10° W 12:34:05 47° W 12:34:05 47° W visible
21 Dec 10.3 08:29:44 10° WSW 08:55:56 71° SSE 09:09:34 23° E visible
21 Dec 9.5 11:03:45 10° W 11:26:52 85° SSW 11:26:52 85° SSW visible
21 Dec 11.0 13:39:02 10° W 13:44:09 21° W 13:44:09 21° W visible
